Meteo pe oră la Dadzewo

Astăzi, 23 Aprilie, Vineri

Timp Temperatura Precipitaţii Vânt Presiune Umiditate
00:00 +1°C° 0 mm 3 m/s 750 mmHg 79%
01:00 0°C° 0 mm 3 m/s 750 mmHg 83%
02:00 +1°C° 0 mm 3 m/s 750 mmHg 83%
03:00 0°C° 0 mm 4 m/s 750 mmHg 83%
04:00 0°C° 0 mm 4 m/s 750 mmHg 84%
05:00 +1°C° 0 mm 4 m/s 750 mmHg 78%
06:00 +3°C° 0 mm 4 m/s 750 mmHg 73%
07:00 +4°C° 0 mm 4 m/s 751 mmHg 67%
08:00 +5°C° 0 mm 4 m/s 751 mmHg 58%
09:00 +6°C° 0 mm 5 m/s 751 mmHg 49%
10:00 +7°C° 0 mm 5 m/s 752 mmHg 39%
11:00 +7°C° 0 mm 5 m/s 752 mmHg 37%
12:00 +7°C° 0 mm 6 m/s 752 mmHg 35%
13:00 +7°C° 0 mm 6 m/s 753 mmHg 32%
14:00 +7°C° 0 mm 6 m/s 753 mmHg 33%
15:00 +7°C° 0 mm 6 m/s 753 mmHg 34%
16:00 +7°C° 0 mm 6 m/s 753 mmHg 35%
17:00 +5°C° 0 mm 6 m/s 753 mmHg 41%
18:00 +5°C° 0 mm 5 m/s 753 mmHg 47%
19:00 +3°C° 0 mm 5 m/s 753 mmHg 53%
20:00 +3°C° 0 mm 4 m/s 753 mmHg 57%
21:00 +1°C° 0 mm 4 m/s 753 mmHg 60%
22:00 +2°C° 0 mm 3 m/s 753 mmHg 64%
23:00 +1°C° 0 mm 3 m/s 753 mmHg 68%

Mâine, 24 Aprilie, Sâmbătă

Timp Temperatura Precipitaţii Vânt Presiune Umiditate
00:00 +1°C° 0 mm 3 m/s 753 mmHg 73%
01:00 +1°C° 0 mm 2 m/s 753 mmHg 77%
02:00 +1°C° 0 mm 2 m/s 753 mmHg 78%
03:00 +1°C° 0 mm 2 m/s 753 mmHg 78%
04:00 -1°C° 0 mm 2 m/s 753 mmHg 79%
05:00 +2°C° 0 mm 2 m/s 753 mmHg 72%
06:00 +3°C° 0 mm 2 m/s 753 mmHg 65%
07:00 +5°C° 0 mm 2 m/s 753 mmHg 58%
08:00 +5°C° 0 mm 3 m/s 753 mmHg 52%
09:00 +7°C° 0 mm 3 m/s 753 mmHg 45%
10:00 +7°C° 0 mm 4 m/s 753 mmHg 39%
11:00 +7°C° 0 mm 4 m/s 753 mmHg 39%
12:00 +7°C° 0 mm 5 m/s 753 mmHg 39%
13:00 +7°C° 0 mm 6 m/s 753 mmHg 38%
14:00 +7°C° 0 mm 5 m/s 753 mmHg 38%
15:00 +6°C° 0 mm 5 m/s 753 mmHg 37%
16:00 +6°C° 0 mm 5 m/s 753 mmHg 36%
17:00 +4°C° 0 mm 4 m/s 753 mmHg 43%
18:00 +3°C° 0 mm 3 m/s 753 mmHg 50%
19:00 +3°C° 0 mm 2 m/s 753 mmHg 57%
20:00 +2°C° 0 mm 2 m/s 753 mmHg 62%
21:00 +2°C° 0 mm 2 m/s 754 mmHg 67%
22:00 +1°C° 0 mm 2 m/s 754 mmHg 72%
23:00 +1°C° 0 mm 2 m/s 753 mmHg 72%

Poimâine, 25 Aprilie, Duminică

Timp Temperatura Precipitaţii Vânt Presiune Umiditate
00:00 +1°C° 0 mm 2 m/s 753 mmHg 71%
01:00 0°C° 0 mm 3 m/s 753 mmHg 71%
02:00 0°C° 0 mm 3 m/s 753 mmHg 71%
03:00 -1°C° 0 mm 3 m/s 753 mmHg 70%
04:00 -1°C° 0 mm 3 m/s 753 mmHg 70%
05:00 +1°C° 0.1 mm 3 m/s 753 mmHg 66%
06:00 +1°C° 0.1 mm 4 m/s 754 mmHg 62%
07:00 +2°C° 0.1 mm 5 m/s 754 mmHg 59%
08:00 +3°C° 0.1 mm 5 m/s 754 mmHg 53%
09:00 +4°C° 0.1 mm 6 m/s 754 mmHg 48%
10:00 +4°C° 0.1 mm 6 m/s 754 mmHg 42%
11:00 +4°C° 0 mm 6 m/s 754 mmHg 42%
12:00 +4°C° 0 mm 6 m/s 754 mmHg 42%
13:00 +4°C° 0 mm 6 m/s 754 mmHg 41%
14:00 +4°C° 0 mm 6 m/s 754 mmHg 40%
15:00 +5°C° 0 mm 5 m/s 754 mmHg 40%
16:00 +5°C° 0 mm 5 m/s 754 mmHg 39%
17:00 +4°C° 0 mm 4 m/s 753 mmHg 45%
18:00 +3°C° 0 mm 4 m/s 753 mmHg 52%
19:00 +2°C° 0 mm 3 m/s 753 mmHg 59%
20:00 +1°C° 0 mm 3 m/s 753 mmHg 64%
21:00 +1°C° 0 mm 3 m/s 753 mmHg 69%
22:00 0°C° 0 mm 3 m/s 752 mmHg 74%
23:00 0°C° 0 mm 3 m/s 752 mmHg 77%

26 Aprilie, Luni

Timp Temperatura Precipitaţii Vânt Presiune Umiditate
00:00 -1°C° 0 mm 2 m/s 752 mmHg 79%
01:00 -1°C° 0 mm 2 m/s 752 mmHg 82%
02:00 -1°C° 0 mm 2 m/s 752 mmHg 82%
03:00 -1°C° 0 mm 2 m/s 751 mmHg 82%
04:00 -2°C° 0 mm 2 m/s 751 mmHg 81%
05:00 +1°C° 0 mm 2 m/s 751 mmHg 74%
06:00 +2°C° 0 mm 3 m/s 751 mmHg 67%
07:00 +3°C° 0 mm 3 m/s 751 mmHg 59%
08:00 +4°C° 0.1 mm 4 m/s 751 mmHg 54%
09:00 +5°C° 0.1 mm 4 m/s 751 mmHg 48%
10:00 +6°C° 0.1 mm 5 m/s 751 mmHg 43%
11:00 +6°C° 0 mm 5 m/s 751 mmHg 42%
12:00 +6°C° 0 mm 5 m/s 751 mmHg 41%
13:00 +7°C° 0 mm 5 m/s 751 mmHg 40%
14:00 +6°C° 0 mm 5 m/s 750 mmHg 41%
15:00 +6°C° 0 mm 5 m/s 750 mmHg 41%
16:00 +6°C° 0 mm 5 m/s 750 mmHg 42%
17:00 +5°C° 0 mm 4 m/s 750 mmHg 50%
18:00 +4°C° 0 mm 3 m/s 750 mmHg 59%
19:00 +2°C° 0 mm 3 m/s 750 mmHg 68%
20:00 +3°C° 0 mm 2 m/s 750 mmHg 72%
21:00 +2°C° 0 mm 2 m/s 749 mmHg 75%
22:00 +1°C° 0 mm 2 m/s 749 mmHg 79%
23:00 +1°C° 0 mm 2 m/s 749 mmHg 81%

27 Aprilie, Marţi

Timp Temperatura Precipitaţii Vânt Presiune Umiditate
00:00 +1°C° 0 mm 2 m/s 749 mmHg 82%
01:00 +1°C° 0 mm 2 m/s 749 mmHg 83%
02:00 -1°C° 0 mm 2 m/s 749 mmHg 84%
03:00 -1°C° 0 mm 2 m/s 748 mmHg 84%
04:00 -1°C° 0 mm 2 m/s 748 mmHg 84%
05:00 +1°C° 0 mm 2 m/s 748 mmHg 77%
06:00 +3°C° 0 mm 2 m/s 748 mmHg 69%
07:00 +4°C° 0 mm 2 m/s 748 mmHg 62%
08:00 +6°C° 0 mm 2 m/s 748 mmHg 55%
09:00 +8°C° 0 mm 1 m/s 748 mmHg 48%
10:00 +10°C° 0 mm 1 m/s 748 mmHg 41%
11:00 +10°C° 0 mm 1 m/s 747 mmHg 40%
12:00 +11°C° 0 mm 1 m/s 747 mmHg 39%
13:00 +11°C° 0 mm 1 m/s 747 mmHg 38%
14:00 +10°C° 0 mm 2 m/s 746 mmHg 41%
15:00 +10°C° 0 mm 3 m/s 746 mmHg 44%
16:00 +9°C° 0 mm 3 m/s 746 mmHg 47%
17:00 +8°C° 0 mm 3 m/s 745 mmHg 53%
18:00 +7°C° 0 mm 3 m/s 745 mmHg 59%
19:00 +5°C° 0 mm 3 m/s 745 mmHg 66%
20:00 +5°C° 0 mm 4 m/s 745 mmHg 68%
21:00 +4°C° 0 mm 4 m/s 745 mmHg 70%
22:00 +4°C° 0 mm 4 m/s 745 mmHg 72%
23:00 +4°C° 0 mm 4 m/s 745 mmHg 74%

28 Aprilie, Miercuri

Timp Temperatura Precipitaţii Vânt Presiune Umiditate
00:00 +3°C° 0 mm 3 m/s 744 mmHg 75%
01:00 +3°C° 0 mm 3 m/s 744 mmHg 77%
02:00 +3°C° 0 mm 3 m/s 744 mmHg 79%
03:00 +3°C° 0 mm 3 m/s 743 mmHg 81%
04:00 +2°C° 0 mm 3 m/s 743 mmHg 83%
05:00 +3°C° 0 mm 4 m/s 743 mmHg 80%
06:00 +4°C° 0 mm 4 m/s 743 mmHg 77%
07:00 +4°C° 0 mm 4 m/s 743 mmHg 73%
08:00 +5°C° 0 mm 4 m/s 743 mmHg 68%
09:00 +7°C° 0 mm 5 m/s 743 mmHg 63%
10:00 +8°C° 0 mm 5 m/s 743 mmHg 58%
11:00 +8°C° 0 mm 5 m/s 743 mmHg 59%
12:00 +7°C° 0 mm 5 m/s 742 mmHg 61%
13:00 +7°C° 0 mm 5 m/s 742 mmHg 63%
14:00 +7°C° 0.1 mm 5 m/s 742 mmHg 64%
15:00 +7°C° 0.1 mm 5 m/s 742 mmHg 64%
16:00 +6°C° 0.1 mm 5 m/s 743 mmHg 65%
17:00 +6°C° 0 mm 4 m/s 743 mmHg 68%
18:00 +5°C° 0 mm 4 m/s 743 mmHg 70%
19:00 +4°C° 0 mm 4 m/s 743 mmHg 72%
20:00 +3°C° 0 mm 3 m/s 743 mmHg 77%
21:00 +2°C° 0 mm 3 m/s 743 mmHg 82%
22:00 +2°C° 0 mm 2 m/s 744 mmHg 86%
23:00 +1°C° 0 mm 2 m/s 744 mmHg 88%
Arată mai mult

Formular de consimțământ

Meteoprog și furnizorii noștri de servicii pot stoca și accesa date personale, precum cookies, identificatori de dispozitiv sau alte tehnologii similare pe dispozitivul dumneavoastră și procesa astfel de date pentru a personaliza conținutul și reclamele, dar și pentru a oferi caracteristici de social media și pentru a analiza traficul.

  • Stocarea și/sau accesarea informațiilor pe dispozitivul dumneavoastră

    Cookies, identificatori de dispozitiv sau alte informații pot fi stocate sau accesate pe dispozitiv în scopurile indicate mai sus.

  • Reclame și conținut personalizat, evaluarea reclamelor și a conținutului, informații despre audiențe și dezvoltarea produselor

    Reclamele și conținutul pot fi personalizate pe baza unui profil. Pot fi adăugate date suplimentare pentru a personaliza mai bine reclamele și conținutul. Performanța reclamelor și conținutului poate fi măsurată. Pot fi obținute informații despre utilizatorii care au văzut reclamele și conținutul. Aceste date pot fi utilizate pentru a dezvolta sau îmbunătăți experiența utilizatorilor, sistemele și software-ul.

Dând clic pe ‘Sunt de acord’, permiteți utilizarea cookie-urilor menționate, a identificatorilor de dispozitiv, balizelor web sau altor tehnologii similare. Setările pot fi modificate din browser-ul dispozitivului dumneavoastră.

În anumite scopuri, interesele legitime pot prima asupra consimțământului. Puteți citi mai multe informații în acest sens în Politica privind Confidențialitatea Datelor și Cookie.